TimeCET,TemperatureF,Dew PointF,Humidity,Sea Level PressureIn,VisibilityMPH,Wind Direction,Wind SpeedMPH,Gust SpeedMPH,PrecipitationIn,Events,Conditions,WindDirDegrees,DateUTC
12:15 AM,55.4,46.4,72,29.44,-9999.0,SSE,13.4,-,N/A,,Clear,150,2012-11-28 23:15:00
12:45 AM,53.6,46.4,77,29.44,-9999.0,SSE,8.9,-,N/A,,Clear,150,2012-11-28 23:45:00
1:15 AM,53.6,46.4,77,29.44,-9999.0,SSE,6.7,-,N/A,,Clear,160,2012-11-29 00:15:00
2:15 AM,51.8,48.2,88,29.44,6.2,SSE,8.9,-,N/A,Rain,Light Rain,150,2012-11-29 01:15:00
2:45 AM,51.8,50.0,94,29.44,-9999.0,SSE,8.9,-,N/A,,Clear,150,2012-11-29 01:45:00
3:15 AM,51.8,50.0,94,29.42,-9999.0,SE,8.9,-,N/A,,Clear,140,2012-11-29 02:15:00
3:45 AM,51.8,50.0,94,29.42,-9999.0,SSE,8.9,-,N/A,,Clear,150,2012-11-29 02:45:00
4:15 AM,50.0,50.0,100,29.39,-9999.0,SSE,8.9,-,N/A,,Clear,150,2012-11-29 03:15:00
4:45 AM,51.8,50.0,94,29.39,-9999.0,SE,8.9,-,N/A,,Clear,140,2012-11-29 03:45:00
5:15 AM,51.8,50.0,94,29.39,-9999.0,SSE,8.9,-,N/A,,Clear,150,2012-11-29 04:15:00
5:45 AM,-9999,-9999,N/A,-9999,6.2,South,8.9,-,N/A,,Clear,170,2012-11-29 04:45:00
6:15 AM,51.8,50.0,94,29.36,-9999.0,SE,8.9,-,N/A,,Clear,140,2012-11-29 05:15:00
7:15 AM,51.8,50.0,94,29.36,-9999.0,SSE,8.9,-,N/A,,Clear,150,2012-11-29 06:15:00
7:45 AM,51.8,50.0,94,29.36,6.2,SSE,8.9,-,N/A,,Scattered Clouds,150,2012-11-29 06:45:00
8:15 AM,51.8,50.0,94,29.36,6.2,SSE,11.2,-,N/A,,Scattered Clouds,160,2012-11-29 07:15:00
8:45 AM,-9999,-9999,N/A,-9999,6.2,SSW,13.4,26.8,N/A,,Clear,200,2012-11-29 07:45:00
9:15 AM,55.4,50.0,82,29.36,-9999.0,SSE,11.2,-,N/A,,Clear,160,2012-11-29 08:15:00
9:45 AM,55.4,50.0,82,29.36,-9999.0,SSE,11.2,-,N/A,,Clear,160,2012-11-29 08:45:00
10:15 AM,59.0,50.0,72,29.36,6.2,South,11.2,-,N/A,,Partly Cloudy,170,2012-11-29 09:15:00
10:45 AM,59.0,48.2,67,29.36,6.2,South,8.9,-,N/A,,Scattered Clouds,180,2012-11-29 09:45:00
11:15 AM,59.0,48.2,67,29.36,-9999.0,South,11.2,-,N/A,,Clear,170,2012-11-29 10:15:00
11:45 AM,-9999,-9999,N/A,-9999,6.2,South,11.2,-,N/A,,Overcast,170,2012-11-29 10:45:00
12:15 PM,59.0,46.4,63,29.33,6.2,South,20.1,-,N/A,,Scattered Clouds,170,2012-11-29 11:15:00
12:45 PM,59.0,48.2,67,29.33,6.2,South,13.4,-,N/A,,Scattered Clouds,170,2012-11-29 11:45:00
1:15 PM,60.8,46.4,59,29.33,6.2,South,8.9,-,N/A,,Mostly Cloudy,180,2012-11-29 12:15:00
1:45 PM,59.0,44.6,59,29.33,6.2,South,8.9,-,N/A,,Mostly Cloudy,170,2012-11-29 12:45:00
2:15 PM,59.0,46.4,63,29.33,6.2,South,8.9,-,N/A,,Mostly Cloudy,180,2012-11-29 13:15:00
2:45 PM,-9999,-9999,N/A,-9999,6.2,SSW,6.7,-,N/A,,Overcast,210,2012-11-29 13:45:00
3:15 PM,57.2,46.4,67,29.33,6.2,South,6.7,-,N/A,,Scattered Clouds,190,2012-11-29 14:15:00
3:45 PM,53.6,46.4,77,29.36,6.2,South,6.7,-,N/A,,Scattered Clouds,180,2012-11-29 14:45:00
4:15 PM,53.6,46.4,77,29.36,6.2,SSW,2.2,-,N/A,,Scattered Clouds,200,2012-11-29 15:15:00
4:45 PM,51.8,46.4,82,29.36,-9999.0,South,2.2,-,N/A,,Clear,180,2012-11-29 15:45:00
5:15 PM,51.8,44.6,76,29.36,-9999.0,SW,4.5,-,N/A,,Clear,220,2012-11-29 16:15:00
5:45 PM,-9999,-9999,N/A,-9999,6.2,SSW,6.7,-,N/A,,Overcast,210,2012-11-29 16:45:00
6:15 PM,50.0,41.0,71,29.36,-9999.0,WSW,4.5,-,N/A,,Clear,250,2012-11-29 17:15:00
6:45 PM,48.2,41.0,76,29.36,-9999.0,SW,4.5,-,N/A,,Clear,230,2012-11-29 17:45:00
7:15 PM,48.2,41.0,76,29.39,-9999.0,WSW,4.5,-,N/A,,Clear,250,2012-11-29 18:15:00
7:45 PM,51.8,44.6,76,29.39,-9999.0,WSW,4.5,-,N/A,,Clear,250,2012-11-29 18:45:00
8:15 PM,48.2,42.8,82,29.39,-9999.0,WNW,11.2,-,N/A,,Clear,300,2012-11-29 19:15:00
8:45 PM,-9999,-9999,N/A,-9999,6.2,WNW,13.4,-,N/A,,Overcast,300,2012-11-29 19:45:00
9:15 PM,44.6,41.0,87,29.42,-9999.0,WNW,8.9,-,N/A,,Clear,300,2012-11-29 20:15:00
9:45 PM,44.6,37.4,76,29.44,-9999.0,NW,8.9,-,N/A,,Clear,320,2012-11-29 20:45:00
10:15 PM,42.8,37.4,81,29.44,-9999.0,NW,6.7,-,N/A,,Clear,320,2012-11-29 21:15:00
10:45 PM,42.8,35.6,76,29.44,-9999.0,NNW,6.7,-,N/A,,Clear,330,2012-11-29 21:45:00
11:15 PM,42.8,33.8,70,29.44,-9999.0,NNW,8.9,-,N/A,,Clear,330,2012-11-29 22:15:00
11:45 PM,-9999,-9999,N/A,-9999,3.1,North,-9999.0,-,N/A,Rain,Rain,0,2012-11-29 22:45:00